Location: Eldred Sherwood Park Lake Dam
(42.9416°N, 93.5655°W)
Time: 13:19:44
(UTC+00:00)

Explorer 11/Cluster Stage 4 - Pass Details

Date: 17 December 2025
Orbit: 463 x 1180 km, 28.8° (Epoch: 13 January)

Event Time Altitude Azimuth Distance (km) Brightness Sun altitude
Rises 01:20:01 0° 245° (WSW) 4,043 11.3 -28.1°
Reaches altitude 10° 01:23:27 10° 234° (SW) 3,044 10.3 -28.8°
Maximum altitude 01:29:25 26° 182° (S) 2,004 8.6 -29.8°
Enters shadow 01:30:37 24° 167° (SSE) 2,025 8.5 -30.1°
